Regional Weather Roundup
Issued by NWS

Home | Current Version | Previous Version | Graphics & Text | Print | Product List | Glossary On
Versions: 1 2 3 4 5 6 7 8 9 10 11 12 13 14 15 16 17 18 19 20 21 22 23 24 25 26 27 28 29 30 31 32 33 34 35 36 37 38 39 40 41 42 43 44 45 46 47 48
000
ASUS45 KBOU 012207
RWRCO

WEATHER ROUNDUP FOR COLORADO
NATIONAL WEATHER SERVICE DENVER/BOULDER CO
300 PM MST SUN FEB 01 2015

NOTE: "FAIR" INDICATES FEW OR NO CLOUDS BELOW 12000 FEET WITH NO
SIGNIFICANT WEATHER AND/OR OBSTRUCTIONS TO VISIBILITY.

COZ001>005-013-030-031-012300-
...NORTHWEST COLORADO...

CITY           SKY/WX    TMP DP  RH WIND       PRES   REMARKS
CRAIG          MOSUNNY   33  18  53 SW5       30.15F WCI  29
HAYDEN         SUNNY     32  14  47 W7        30.14F WCI  26
MEEKER         MOSUNNY   36  17  46 NE3       30.14F
MOUNT WERNER   NOT AVBL
STEAMBOAT SPGS SUNNY     31  14  50 SW9       30.13S WCI  23
WALDEN         MOSUNNY   25  12  58 CALM      30.08S
$$

COZ006>008-011-012300-
...WEST CENTRAL VALLEYS...

CITY           SKY/WX    TMP DP  RH WIND       PRES   REMARKS
GRAND JUNCTION SUNNY     46  28  49 NW5       30.14F
MONTROSE       SUNNY     45  14  28 E5        30.16F
EAGLE          SUNNY     39  10  30 S17G26    30.13S
RIFLE          SUNNY     43  16  33 W5        30.13F
DELTA          SUNNY     50  19  30 SW3       30.14F
NUCLA          SUNNY     45  21  39 NW5       30.18F
$$

COZ017>023-064>068-012300-
...SOUTHWEST COLORADO...

CITY           SKY/WX    TMP DP  RH WIND       PRES   REMARKS
DURANGO        SUNNY     38  26  62 SW7       30.11S
CORTEZ         SUNNY     50   9  19 N8G18     30.12F
PAGOSA SPRINGS SUNNY     36  24  61 SW3       30.12S
TELLURIDE      SUNNY     33   0  24 NW5       30.16F WCI  29
WOLF CREEK PAS SUNNY     23   5  46 NW5G18    30.15R WCI  17
$$

COZ009-010-012-014-032>034-037-058>063-012300-
...CENTRAL COLORADO...

CITY           SKY/WX    TMP DP  RH WIND       PRES   REMARKS
ASPEN          SUNNY     33   4  29 N12       30.12S WCI  24
BUENA VISTA    SUNNY     37  -2  19 NW9       30.03R
COPPER MTN     SUNNY     18   1  49 MISG      30.03R HAZE
BERTHOUD PASS  NOT AVBL
COTTONWOOD PAS SUNNY     32 -15  12 W25G38    30.02R WCI  19
GUNNISON       SUNNY     34  10  37 NW7       30.14S WCI  28
KREMMLING      SUNNY     34   1  25 NW9G20    30.13R WCI  26
LEADVILLE      SUNNY     22   1  40 NW21G30   30.04S WCI   6
SALIDA         SUNNY     41   4  22 W17G24    30.10R
SUNLIGHT       SUNNY     23  10  58 CALM        N/A
WILKERSON PASS SUNNY     19  -6  32 NW7       30.02R WCI  10
$$

COZ069>075-012300-
...SAN LUIS VALLEY/SANGRE DE CRISTO MOUNTAINS...

CITY           SKY/WX    TMP DP  RH WIND       PRES   REMARKS
ALAMOSA        SUNNY     38  16  40 W8        30.06S
LA VETA PASS   SUNNY     27  16  63 SW6       30.02R WCI  20
SAGUACHE       SUNNY     34  10  37 NW23G29   30.06R WCI  22
$$

COZ035-036-038>040-012300-
...NORTHERN COLORADO FRONT RANGE...

CITY           SKY/WX    TMP DP  RH WIND       PRES   REMARKS
DENVER INTL AP CLOUDY    23  17  78 S8        30.14S WCI  14
DMNS CITY PARK   N/A     24  20  87 SE3G10    30.14S
AURORA         CLOUDY    21  16  79 SE6       30.14S WCI  14
FRONT RANGE AP NOT AVBL
ERIE MUNI ARPT CLOUDY    27  20  77 SE8       30.15S WCI  18
BOULDER MUN AP CLOUDY    30  21  69 SE3       30.13S
CENTENNIAL     FLURRIES  22  16  78 CALM      30.13R
BROOMFIELD     PTSUNNY   27  19  74 SE6       30.13S WCI  20
FORT COLLINS   SUNNY     30  19  64 SE9G16    30.15S WCI  22
LONGMONT       CLOUDY    31  21  65 S3        30.17S
$$

COZ041-046-047-076>085-087-088-012300-
...PIKES PEAK/PALMER DIVIDE AND SOUTHERN FOOTHILLS...

CITY           SKY/WX    TMP DP  RH WIND       PRES   REMARKS
COLO. SPRINGS  PTSUNNY   29  18  63 S7        30.10R WCI  22
A. F. ACADEMY  CLOUDY    28  15  59 VRB6      30.08R WCI  21
ELLICOTT       MOSUNNY  N/A N/A N/A N17       30.09R
FALCON         MOSUNNY   26  15  62 N9        30.08S WCI  17
FORT CARSON    CLOUDY    31  20  64 SE8       30.09S WCI  23
LIMON          FLURRIES  21  15  78 N18       30.13S WCI   6
MONUMENT HILL  MOSUNNY   21  16  79 N10       30.07S WCI  10
TRINIDAD       CLOUDY    30  22  72 E9        30.11R WCI  22
$$

COZ042>045-048>051-090-091-012300-
...NORTHEAST COLORADO...

CITY           SKY/WX    TMP DP  RH WIND       PRES   REMARKS
GREELEY ARPT   SUNNY     34  14  44 S7        30.14S WCI  28
AKRON          SUNNY     22  13  68 N25G36    30.16S WCI   5
BURLINGTON     SUNNY     20  11  68 N21       30.17S WCI   4
WRAY           PTSUNNY   17  11  74 MISG      30.25R
STERLING       MOSUNNY   25  12  58 NE12      30.21R WCI  14
HOLYOKE        NOT AVBL
FORT MORGAN    MOSUNNY   29  10  45 N24G31    30.16F WCI  15
$$

COZ086-089-092>099-012300-
...SOUTHEAST COLORADO...

CITY           SKY/WX    TMP DP  RH WIND       PRES   REMARKS
PUEBLO         CLOUDY    34  21  59 SE6       30.13R WCI  29
LA JUNTA       CLOUDY    37  17  44 N13       30.16R
LAMAR          PTSUNNY   35  18  49 N12G20    30.17R WCI  27
SPRINGFIELD      N/A     34  20  56 N15G25    30.14R WCI  24
$$


USA.gov is the U.S. government's official web portal to all federal, state and local government web resources and services.